Powrót do katalogu

COSMOS 2061

AktywnyMilitariaPO
NORAD 20527·PAYLOAD·🇷🇺 Russia

Wystrzelony Mar 20, 1990 z Plesetsk Cosmodrome

Loading…

Następne Przeloty (najbliższe 24 godziny)

TLE

ŚwieżeSource: Space-Track

Epoka: Sep 14, 2026, 12:45 UTC

1 20527U 90023A   26257.53180429  .00000033  00000-0  19369-4 0  9992
2 20527  82.9332 103.4500 0031509  19.3087   7.9049 13.72390355827064

Śledź COSMOS 2061 w czasie rzeczywistym z AllMySat

Download on the App Store